Date,TemperatureHighF,TemperatureAvgF,TemperatureLowF,DewpointHighF,DewpointAvgF,DewpointLowF,HumidityHigh,HumidityAvg,HumidityLow,PressureMaxIn,PressureMinIn,WindSpeedMaxMPH,WindSpeedAvgMPH,GustSpeedMaxMPH,PrecipitationSumIn
2013-5-1,54,38,26,35,28,24,97,73,35,30.68,30.44,7,2,11,0.03
2013-5-2,65,46,31,40,31,22,95,60,20,30.68,30.29,10,2,11,0.00
2013-5-3,61,52,42,41,37,31,89,59,42,30.28,30.17,8,2,14,0.00
2013-5-4,65,55,42,39,35,32,81,50,30,30.21,30.03,16,6,21,0.00
2013-5-5,73,58,44,43,37,33,68,47,26,30.03,29.80,14,4,22,0.00
2013-5-6,76,62,46,45,40,34,72,47,22,29.84,29.69,8,3,11,0.00
2013-5-7,76,61,39,51,43,37,93,56,34,29.87,29.74,11,3,12,0.00
2013-5-8,77,65,52,53,46,39,71,52,36,29.94,29.86,9,3,15,0.00
2013-5-9,77,61,43,55,48,42,96,65,34,30.05,29.95,10,3,17,0.00
2013-5-10,81,62,40,54,45,39,96,62,24,30.15,30.06,11,2,11,0.00
2013-5-11,80,64,47,53,48,44,91,59,32,30.12,30.00,8,3,13,0.00
2013-5-12,76,65,50,54,51,46,93,62,41,30.02,29.91,15,4,20,0.00
2013-5-13,69,57,44,56,48,40,96,73,51,30.09,29.79,24,5,35,0.10
2013-5-14,58,48,34,42,39,33,95,71,46,30.12,30.05,11,3,13,0.00
2013-5-15,62,48,30,42,36,29,98,66,30,30.09,29.93,7,2,9,0.00
2013-5-16,60,51,39,46,42,38,96,73,51,29.95,29.83,7,2,11,0.00
2013-5-17,63,51,36,48,42,36,99,76,49,29.97,29.85,14,5,20,0.00
2013-5-18,54,48,38,44,42,36,94,80,63,30.15,29.97,7,2,10,0.00
2013-5-19,58,49,38,46,43,36,97,79,58,30.26,30.15,15,3,15,0.00
2013-5-20,71,54,36,49,44,34,99,74,39,30.28,29.89,6,1,15,0.00
2013-5-21,71,52,41,49,43,39,95,75,42,29.89,29.55,21,6,32,0.08
2013-5-22,49,39,33,40,35,32,97,87,63,30.02,29.73,17,6,22,0.07
2013-5-23,57,44,31,40,34,25,98,71,29,30.05,29.95,13,3,15,0.00
2013-5-24,50,40,28,42,36,26,98,87,74,30.10,29.95,9,2,14,0.08
2013-5-25,60,46,35,45,38,34,98,77,45,30.07,29.98,6,2,10,0.00
2013-5-26,62,51,34,47,42,33,98,73,46,29.98,29.89,15,4,17,0.00
2013-5-27,65,53,47,49,46,44,95,79,49,29.96,29.75,11,2,18,0.10
2013-5-28,58,50,45,49,46,42,98,85,59,29.84,29.75,11,3,17,0.07
2013-5-29,56,48,42,49,45,41,97,90,69,29.91,29.67,14,4,17,0.17
2013-5-30,55,47,34,44,41,33,97,81,55,30.16,29.91,11,4,15,0.07
2013-5-31,62,48,35,44,39,34,98,73,38,30.30,30.16,11,2,13,0.00